EZY82CQ EGNS-EGCC

Flight info

Callsign EZY82CQ
Flight time 0h 24m
Altitude 15000
Route TIMIS Q39 DANDI DCT PENIL
Aircraft A320/M-SDE3FGHIRWY/LB1

Departure

Time 2026-05-04 12:44
Airport Isle of Man Airport (EGNS)

Arrival

Time 2026-05-04 13:08
Airport Manchester Airport (EGCC)
Time Latitude Longitude Altitude Speed Heading
2026-05-04 12:21 54.08587 -4.63320 46 ft 0 kts 45°
2026-05-04 12:38 54.08572 -4.63349 46 ft 4 kts 62°
2026-05-04 12:38 54.08566 -4.63390 43 ft 4 kts 102°
2026-05-04 12:38 54.08575 -4.63423 46 ft 1 kts 134°
2026-05-04 12:40 54.08573 -4.63420 43 ft 2 kts 134°
2026-05-04 12:40 54.08554 -4.63386 44 ft 5 kts 134°
2026-05-04 12:41 54.08517 -4.63336 43 ft 8 kts 162°
2026-05-04 12:41 54.08457 -4.63378 45 ft 10 kts 211°
2026-05-04 12:41 54.08401 -4.63386 43 ft 8 kts 171°
2026-05-04 12:41 54.08356 -4.63445 41 ft 11 kts 255°
2026-05-04 12:42 54.08339 -4.63584 47 ft 12 kts 256°
2026-05-04 12:42 54.08302 -4.63714 46 ft 14 kts 241°
2026-05-04 12:42 54.08256 -4.63853 43 ft 8 kts 240°
2026-05-04 12:42 54.08203 -4.63903 37 ft 11 kts 173°
2026-05-04 12:43 54.08145 -4.63880 34 ft 5 kts 157°
2026-05-04 12:43 54.08141 -4.63855 34 ft 1 kts 78°
2026-05-04 12:43 54.08142 -4.63850 34 ft 0 kts 77°
2026-05-04 12:43 54.08174 -4.63608 35 ft 59 kts 78°
2026-05-04 12:44 54.08312 -4.62512 45 ft 126 kts 78°
2026-05-04 12:44 54.08536 -4.60799 310 ft 157 kts 75°
2026-05-04 12:44 54.08764 -4.58997 1084 ft 155 kts 76°
2026-05-04 12:44 54.08843 -4.57143 1661 ft 169 kts 103°
2026-05-04 12:45 54.08227 -4.55291 2048 ft 194 kts 132°
2026-05-04 12:45 54.07027 -4.54000 2376 ft 218 kts 157°
2026-05-04 12:45 54.05544 -4.52986 2708 ft 242 kts 158°
2026-05-04 12:45 54.03913 -4.51869 3052 ft 261 kts 158°
2026-05-04 12:46 54.02203 -4.50699 3581 ft 267 kts 158°
2026-05-04 12:46 54.00468 -4.49512 4206 ft 269 kts 158°
2026-05-04 12:46 53.98754 -4.48339 4859 ft 269 kts 159°
2026-05-04 12:46 53.97011 -4.47147 5460 ft 271 kts 159°
2026-05-04 12:47 53.95258 -4.45953 6052 ft 273 kts 159°
2026-05-04 12:47 53.93490 -4.44749 6598 ft 275 kts 160°
2026-05-04 12:47 53.91706 -4.43533 7115 ft 277 kts 160°
2026-05-04 12:47 53.89912 -4.42312 7617 ft 280 kts 159°
2026-05-04 12:48 53.88148 -4.40891 8124 ft 282 kts 148°
2026-05-04 12:48 53.86608 -4.38817 8626 ft 285 kts 135°
2026-05-04 12:48 53.85376 -4.36171 9104 ft 288 kts 124°
2026-05-04 12:48 53.84245 -4.33362 9610 ft 290 kts 125°
2026-05-04 12:49 53.83099 -4.30539 10093 ft 292 kts 125°
2026-05-04 12:49 53.81914 -4.27636 10246 ft 310 kts 125°
2026-05-04 12:49 53.80641 -4.24527 10617 ft 330 kts 125°
2026-05-04 12:49 53.79316 -4.21299 11317 ft 337 kts 125°
2026-05-04 12:50 53.77964 -4.18012 12098 ft 342 kts 125°
2026-05-04 12:50 53.76598 -4.14695 12905 ft 346 kts 125°
2026-05-04 12:50 53.75215 -4.11338 13704 ft 349 kts 125°
2026-05-04 12:50 53.73821 -4.07955 14432 ft 353 kts 125°
2026-05-04 12:51 53.72454 -4.04488 14905 ft 357 kts 119°
2026-05-04 12:51 53.71345 -4.00730 15045 ft 357 kts 116°
2026-05-04 12:51 53.70282 -3.96996 15085 ft 351 kts 116°
2026-05-04 12:51 53.69238 -3.93286 15088 ft 349 kts 115°
2026-05-04 12:52 53.68201 -3.89590 15092 ft 348 kts 115°
2026-05-04 12:52 53.67168 -3.85910 15086 ft 346 kts 115°
2026-05-04 12:52 53.66137 -3.82254 15089 ft 345 kts 115°
2026-05-04 12:52 53.65101 -3.78605 15090 ft 345 kts 115°
2026-05-04 12:53 53.64061 -3.74966 15087 ft 345 kts 116°
2026-05-04 12:53 53.63020 -3.71331 15084 ft 345 kts 116°
2026-05-04 12:53 53.61976 -3.67695 15085 ft 344 kts 116°
2026-05-04 12:53 53.60725 -3.64264 15082 ft 344 kts 125°
2026-05-04 12:54 53.59354 -3.61016 15084 ft 345 kts 126°
2026-05-04 12:54 53.57976 -3.57747 14900 ft 339 kts 126°
2026-05-04 12:54 53.56629 -3.54544 14662 ft 332 kts 125°
2026-05-04 12:54 53.55311 -3.51404 14418 ft 326 kts 126°
2026-05-04 12:55 53.54011 -3.48313 14178 ft 322 kts 126°
2026-05-04 12:55 53.52763 -3.45197 13941 ft 321 kts 121°
2026-05-04 12:55 53.51638 -3.41964 13679 ft 320 kts 120°
2026-05-04 12:55 53.50549 -3.38702 13410 ft 319 kts 119°
2026-05-04 12:56 53.49481 -3.35442 13139 ft 318 kts 119°
2026-05-04 12:56 53.48418 -3.32191 12875 ft 317 kts 119°
2026-05-04 12:56 53.47350 -3.28949 12611 ft 316 kts 119°
2026-05-04 12:56 53.46285 -3.25735 12351 ft 314 kts 119°
2026-05-04 12:57 53.45215 -3.22532 12093 ft 314 kts 119°
2026-05-04 12:57 53.44145 -3.19342 11831 ft 313 kts 120°
2026-05-04 12:57 53.43080 -3.16173 11572 ft 310 kts 119°
2026-05-04 12:57 53.42026 -3.13040 11202 ft 308 kts 119°
2026-05-04 12:58 53.40975 -3.09919 10799 ft 307 kts 119°
2026-05-04 12:58 53.39922 -3.06796 10389 ft 307 kts 119°
2026-05-04 12:58 53.38873 -3.03690 10121 ft 303 kts 119°
2026-05-04 12:58 53.37847 -3.00652 9881 ft 297 kts 119°
2026-05-04 12:59 53.36834 -2.97651 9317 ft 295 kts 119°
2026-05-04 12:59 53.35828 -2.94673 8789 ft 292 kts 119°
2026-05-04 12:59 53.34850 -2.91787 8220 ft 286 kts 119°
2026-05-04 12:59 53.33874 -2.88914 7668 ft 282 kts 119°
2026-05-04 13:00 53.32897 -2.86047 7139 ft 278 kts 119°
2026-05-04 13:00 53.31956 -2.83289 6615 ft 275 kts 119°
2026-05-04 13:00 53.31015 -2.80530 6068 ft 272 kts 119°
2026-05-04 13:00 53.30081 -2.77794 5536 ft 270 kts 118°
2026-05-04 13:01 53.29157 -2.75081 4974 ft 267 kts 119°
2026-05-04 13:01 53.28242 -2.72397 4435 ft 265 kts 119°
2026-05-04 13:01 53.27358 -2.69811 4258 ft 244 kts 119°
2026-05-04 13:01 53.26555 -2.67468 4199 ft 222 kts 119°
2026-05-04 13:02 53.25822 -2.65336 4137 ft 203 kts 119°
2026-05-04 13:02 53.25128 -2.63314 4077 ft 200 kts 119°
2026-05-04 13:02 53.24441 -2.61313 3988 ft 198 kts 119°
2026-05-04 13:02 53.23773 -2.59368 3923 ft 186 kts 119°
2026-05-04 13:03 53.23151 -2.57558 3827 ft 174 kts 119°
2026-05-04 13:03 53.22696 -2.55746 3691 ft 168 kts 101°
2026-05-04 13:03 53.22664 -2.53810 3567 ft 168 kts 80°
2026-05-04 13:03 53.23058 -2.51993 3398 ft 167 kts 58°
2026-05-04 13:04 53.23765 -2.50459 3192 ft 166 kts 51°
2026-05-04 13:04 53.24260 -2.49448 3044 ft 166 kts 51°
2026-05-04 13:04 53.24990 -2.47954 2820 ft 165 kts 51°
2026-05-04 13:04 53.25691 -2.46516 2597 ft 155 kts 51°
2026-05-04 13:05 53.26363 -2.45136 2390 ft 150 kts 51°
2026-05-04 13:05 53.27001 -2.43827 2204 ft 143 kts 51°
2026-05-04 13:05 53.27623 -2.42549 2004 ft 141 kts 51°
2026-05-04 13:05 53.28237 -2.41288 1804 ft 140 kts 51°
2026-05-04 13:06 53.28839 -2.40049 1619 ft 139 kts 51°
2026-05-04 13:06 53.29448 -2.38796 1424 ft 138 kts 51°
2026-05-04 13:06 53.30054 -2.37548 1236 ft 138 kts 51°
2026-05-04 13:06 53.30659 -2.36303 1039 ft 138 kts 51°
2026-05-04 13:07 53.31261 -2.35063 842 ft 137 kts 51°
2026-05-04 13:07 53.31861 -2.33829 672 ft 137 kts 50°
2026-05-04 13:07 53.32461 -2.32596 490 ft 136 kts 50°
2026-05-04 13:07 53.33054 -2.31359 322 ft 136 kts 51°
2026-05-04 13:08 53.33636 -2.30155 240 ft 124 kts 51°
2026-05-04 13:08 53.34095 -2.29214 230 ft 86 kts 51°
2026-05-04 13:08 53.34315 -2.28756 225 ft 28 kts 50°
2026-05-04 13:08 53.34447 -2.28580 227 ft 22 kts 28°
2026-05-04 13:09 53.34576 -2.28490 228 ft 18 kts 24°
2026-05-04 13:09 53.34685 -2.28417 231 ft 16 kts 25°
2026-05-04 13:09 53.34764 -2.28296 232 ft 16 kts 51°
2026-05-04 13:09 53.34823 -2.28171 231 ft 9 kts 52°
2026-05-04 13:10 53.34859 -2.28093 230 ft 10 kts 52°
2026-05-04 13:10 53.34903 -2.28003 230 ft 9 kts 50°
2026-05-04 13:10 53.34952 -2.27969 230 ft 9 kts 344°
2026-05-04 13:10 53.35009 -2.28033 233 ft 11 kts 322°
2026-05-04 13:11 53.35075 -2.28122 233 ft 14 kts 320°
2026-05-04 13:11 53.35148 -2.28201 231 ft 10 kts 345°
2026-05-04 13:11 53.35196 -2.28197 230 ft 5 kts
2026-05-04 13:11 53.35222 -2.28193 231 ft 0 kts
2026-05-04 13:12 53.35246 -2.28188 233 ft 8 kts
2026-05-04 13:12 53.35313 -2.28178 234 ft 10 kts
2026-05-04 13:13 53.35385 -2.28168 236 ft 12 kts
2026-05-04 13:13 53.35476 -2.28137 234 ft 16 kts 21°
2026-05-04 13:13 53.35559 -2.28034 237 ft 15 kts 48°
2026-05-04 13:13 53.35616 -2.27919 240 ft 10 kts 43°
2026-05-04 13:14 53.35691 -2.27884 244 ft 13 kts
2026-05-04 13:14 53.35785 -2.27868 249 ft 13 kts
2026-05-04 13:14 53.35878 -2.27851 254 ft 13 kts
2026-05-04 13:14 53.35966 -2.27871 255 ft 14 kts 333°
2026-05-04 13:15 53.36047 -2.27981 255 ft 16 kts 318°
2026-05-04 13:15 53.36129 -2.28105 255 ft 16 kts 315°
2026-05-04 13:15 53.36211 -2.28245 255 ft 18 kts 314°
2026-05-04 13:15 53.36294 -2.28383 255 ft 12 kts 315°
2026-05-04 13:16 53.36347 -2.28464 255 ft 10 kts 332°
2026-05-04 13:16 53.36412 -2.28492 255 ft 10 kts 337°
2026-05-04 13:16 53.36470 -2.28573 255 ft 13 kts 315°
2026-05-04 13:16 53.36543 -2.28697 255 ft 16 kts 314°
2026-05-04 13:17 53.36604 -2.28785 255 ft 10 kts 344°
2026-05-04 13:17 53.36665 -2.28760 255 ft 10 kts 20°
2026-05-04 13:17 53.36720 -2.28683 255 ft 11 kts 45°
2026-05-04 13:17 53.36769 -2.28602 255 ft 5 kts 45°
2026-05-04 13:18 53.36798 -2.28593 255 ft 6 kts 334°
2026-05-04 13:18 53.36819 -2.28627 255 ft 2 kts 315°
2026-05-04 13:18 53.36820 -2.28629 255 ft 0 kts 315°